sat.trackr.live / text

‹ back to catalog

STARLINK-6055

NORAD 56467 · 2023-064V

PAYLOAD ACTIVE UNKNOWN

§ Identity

Operator
Country
US
Launch date
2023-05-10
Launch site
AFWTR
Launch vehicle
Mass (kg)
RCS (m²)

Purposes: comms

External: N2YO · Heavens-Above · Gunter

§ Orbital elements

Epoch: 2026-05-25T02:42:01.888704Z

Period
96.11 min
Inclination
69.9991°
Eccentricity
0.0002862
Mean motion
14.98331934 rev/d
Perigee alt
570.1 km
Apogee alt
574.0 km
Semi-major
6,950.2 km
B*
6.7929e-9
RAAN
291.8877°
Arg perigee
270.7560°
Mean anomaly
89.3271°
Rev number
16,718

§ Raw data

STARLINK-60551 56467U 23064V   26145.11252186 -.00000093  00000+0  67929-8 0  99902 56467  69.9991 291.8877 0002862 270.7560  89.3271 14.98331934167188

JSON: /api/v1/satellites/56467 · /tle

For live sub-satellite position, see the globe view (requires WebGL).

§ Visibility from observer

Set your observer location to see the next 7 days of passes ≥ 10°. The values pass through the URL so the page stays shareable.

No JS? Fill the form by hand. The geolocation button needs JavaScript.